Humidity-temperature Sensor

Selected Measurement Type: Relative Humidity

 
Relative Humidity [%]     6 entries per hour
Showing data from 6/27/2020 (00:00:00 Z) to 6/26/2020 (00:01:00 Z)
Previous Next [ Day | 3-Days | 7-Days ]
First Last
Prev [ Day | 3-Days | 7-Days ] Next
First Last

Start Time:     :
End Time:     :     
Time (in GMT) :00 :50 :40 :30 :20 :10
Previous Next [ Day | 3-Days | 7-Days ]
First Last
Prev [ Day | 3-Days | 7-Days ] Next
First Last


123 => good data
MM => data is determined as missing
-- => data not received/configured
Back to Top Back to Top
6/27/2020 00:00 to 23:10 85.69 85.83 85.31 85.05 84.21 86.13
6/26/2020 23:00 to 22:10 86.91 85.27 84.71 85.31 84.13 83.79
6/26/2020 22:00 to 21:10 82.98 83.18 84.45 83.79 83.63 83.45
6/26/2020 21:00 to 20:10 83.34 83.14 83.18 82.90 83.16 82.44
6/26/2020 20:00 to 19:10 82.18 81.48 82.04 80.82 80.46 80.34
6/26/2020 19:00 to 18:10 80.60 82.58 80.86 81.62 82.12 82.78
6/26/2020 18:00 to 17:10 82.28 82.16 80.52 80.56 82.38 82.50
6/26/2020 17:00 to 16:10 82.40 84.21 83.97 84.51 83.20 83.24
6/26/2020 16:00 to 15:10 83.22 82.14 82.62 83.55 83.81 83.85
6/26/2020 15:00 to 14:10 83.95 83.81 84.55 84.85 85.01 84.07
6/26/2020 14:00 to 13:10 83.36 82.96 83.47 83.89 83.04 82.68
6/26/2020 13:00 to 12:10 82.36 80.70 80.36 78.61 77.75 78.69
6/26/2020 12:00 to 11:10 78.13 79.96 79.17 79.86 79.67 80.50
6/26/2020 11:00 to 10:10 80.38 82.98 83.40 84.11 84.29 84.19
6/26/2020 10:00 to 9:10 83.81 83.45 82.46 83.71 81.90 82.90
6/26/2020 09:00 to 8:10 83.69 84.57 84.07 82.18 81.92 82.92
6/26/2020 08:00 to 7:10 83.00 83.51 83.14 83.77 82.60 83.89
6/26/2020 07:00 to 6:10 83.18 83.61 83.57 83.47 82.28 81.98
6/26/2020 06:00 to 5:10 81.98 82.52 82.82 84.11 83.93 85.11
6/26/2020 05:00 to 4:10 84.59 84.53 83.71 84.05 83.81 85.27
6/26/2020 04:00 to 3:10 83.83 82.86 83.06 83.99 82.28 81.66
6/26/2020 03:00 to 2:10 80.96 82.24 82.94 83.12 84.59 84.39
6/26/2020 02:00 to 1:10 84.17 84.75 85.51 84.99 85.43 84.35
6/26/2020 01:00 to 0:10 84.67 83.91 83.38 84.05 84.07 84.01